This is the latest recevied weather packets stored in our database for station/object OH6HPS. If no packets are shown the sender has not sent any weather packets the latest 10 day(s).
| Time | Temp. | Humidity | Pressure | Rain* | Wind** | Luminosity | Snow |
|---|---|---|---|---|---|---|---|
| 1788006241 | 19.44° C | 69% | 1011.2 hPa | 0 mm | - | 167 W/m² | - |
| 1788005039 | 19.44° C | 68% | 1011.6 hPa | 0 mm | - | 162 W/m² | - |
| 1788004439 | 19.44° C | 68% | 1011.6 hPa | 0 mm | - | 155 W/m² | - |
| 1788003838 | 19.44° C | 67% | 1011.8 hPa | 0 mm | - | 111 W/m² | - |
| 1788003240 | 20° C | 66% | 1012 hPa | 0 mm | - | 106 W/m² | - |
| 1788002639 | 20° C | 65% | 1012.1 hPa | 0 mm | - | 121 W/m² | - |
| 1788002039 | 20.56° C | 64% | 1012.2 hPa | 0 mm | - | 169 W/m² | - |
| 1788001438 | 20.56° C | 64% | 1012.4 hPa | 0 mm | - | 236 W/m² | - |
| 1788000838 | 20° C | 65% | 1012.3 hPa | 0 mm | - | 303 W/m² | - |
| 1788000238 | 20° C | 65% | 1012.6 hPa | 0 mm | - | 197 W/m² | - |
| 1787999638 | 19.44° C | 66% | 1012.4 hPa | 0 mm | - | 171 W/m² | - |
| 1787999037 | 19.44° C | 66% | 1012.5 hPa | 0 mm | - | 132 W/m² | - |
| 1787998437 | 20° C | 66% | 1012.6 hPa | 0 mm | - | 116 W/m² | - |
| 1787996036 | 20° C | 66% | 1012.9 hPa | 0 mm | - | 185 W/m² | - |
| 1787995437 | 20° C | 67% | 1012.9 hPa | 0 mm | - | 162 W/m² | - |
| 1787994835 | 20° C | 67% | 1012.9 hPa | 0 mm | - | 199 W/m² | - |
| 1787994236 | 20° C | 68% | 1012.9 hPa | 0 mm | - | 253 W/m² | - |
| 1787993636 | 19.44° C | 69% | 1012.9 hPa | 0 mm | - | 209 W/m² | - |
| 1787993035 | 19.44° C | 70% | 1013 hPa | 0 mm | - | 206 W/m² | - |
| 1787992435 | 19.44° C | 70% | 1013 hPa | 0 mm | - | 199 W/m² | - |
| 1787991835 | 19.44° C | 71% | 1013.1 hPa | 0 mm | - | 213 W/m² | - |
| 1787991234 | 19.44° C | 72% | 1013.2 hPa | 0 mm | - | 281 W/m² | - |
| 1787990634 | 18.89° C | 73% | 1013.2 hPa | 0 mm | - | 238 W/m² | - |
| 1787990033 | 18.89° C | 74% | 1013.2 hPa | 0 mm | - | 250 W/m² | - |
| 1787989432 | 18.33° C | 74% | 1013.3 hPa | 0 mm | - | 176 W/m² | - |
* Rain latest hour (hover to see other rain measurements)
** Current wind speed in m/s (hover to see current wind gust speed)